TimeCST,TemperatureF,Dew PointF,Humidity,Sea Level PressureIn,VisibilityMPH,Wind Direction,Wind SpeedMPH,Gust SpeedMPH,PrecipitationIn,Events,Conditions,WindDirDegrees,DateUTC
12:15 AM,48.2,30.2,50,30.22,10.0,East,5.8,-,N/A,,Clear,90,2013-03-09 06:15:00
12:35 AM,46.4,28.4,50,30.22,10.0,East,5.8,-,N/A,,Clear,80,2013-03-09 06:35:00
12:55 AM,46.4,30.2,53,30.22,10.0,ENE,5.8,-,N/A,,Clear,70,2013-03-09 06:55:00
1:15 AM,46.4,30.2,53,30.21,10.0,East,5.8,-,N/A,,Clear,80,2013-03-09 07:15:00
1:35 AM,48.2,28.4,46,30.20,10.0,East,5.8,-,N/A,,Scattered Clouds,90,2013-03-09 07:35:00
1:55 AM,46.4,30.2,53,30.19,10.0,East,8.1,-,N/A,,Scattered Clouds,90,2013-03-09 07:55:00
2:15 AM,48.2,30.2,50,30.18,10.0,East,6.9,-,N/A,,Clear,90,2013-03-09 08:15:00
2:35 AM,46.4,28.4,50,30.17,10.0,East,8.1,-,N/A,,Clear,80,2013-03-09 08:35:00
2:55 AM,46.4,30.2,53,30.17,10.0,East,6.9,-,N/A,,Clear,90,2013-03-09 08:55:00
3:15 AM,46.4,30.2,53,30.18,10.0,East,6.9,-,N/A,,Clear,90,2013-03-09 09:15:00
3:35 AM,46.4,30.2,53,30.18,10.0,East,4.6,-,N/A,,Clear,90,2013-03-09 09:35:00
3:55 AM,46.4,30.2,53,30.18,10.0,East,5.8,-,N/A,,Clear,80,2013-03-09 09:55:00
4:15 AM,46.4,30.2,53,30.17,10.0,East,6.9,-,N/A,,Clear,90,2013-03-09 10:15:00
4:35 AM,46.4,30.2,53,30.16,10.0,East,6.9,-,N/A,,Clear,90,2013-03-09 10:35:00
4:55 AM,46.4,30.2,53,30.17,10.0,East,4.6,-,N/A,,Clear,80,2013-03-09 10:55:00
5:15 AM,44.6,30.2,57,30.16,10.0,East,6.9,-,N/A,,Clear,80,2013-03-09 11:15:00
5:35 AM,42.8,32.0,66,30.16,10.0,East,5.8,-,N/A,,Clear,100,2013-03-09 11:35:00
6:15 AM,44.6,32.0,61,30.17,10.0,East,3.5,-,N/A,,Mostly Cloudy,80,2013-03-09 12:15:00
6:35 AM,46.4,32.0,57,30.18,10.0,East,3.5,-,N/A,,Overcast,80,2013-03-09 12:35:00
6:55 AM,46.4,32.0,57,30.18,10.0,East,4.6,-,N/A,,Overcast,100,2013-03-09 12:55:00
7:15 AM,46.4,32.0,57,30.17,10.0,East,4.6,-,N/A,,Overcast,90,2013-03-09 13:15:00
7:35 AM,48.2,32.0,54,30.18,10.0,ESE,3.5,-,N/A,,Overcast,110,2013-03-09 13:35:00
7:55 AM,48.2,32.0,54,30.18,10.0,ESE,8.1,-,N/A,,Overcast,110,2013-03-09 13:55:00
8:15 AM,48.2,32.0,54,30.18,10.0,ESE,5.8,-,N/A,,Overcast,110,2013-03-09 14:15:00
8:35 AM,50.0,32.0,50,30.17,10.0,ESE,8.1,-,N/A,,Overcast,110,2013-03-09 14:35:00
8:55 AM,50.0,32.0,50,30.17,10.0,ESE,4.6,-,N/A,,Overcast,110,2013-03-09 14:55:00
9:15 AM,51.8,32.0,47,30.15,10.0,ESE,5.8,-,N/A,,Overcast,110,2013-03-09 15:15:00
9:35 AM,53.6,32.0,44,30.15,10.0,ESE,8.1,-,N/A,,Mostly Cloudy,120,2013-03-09 15:35:00
9:55 AM,55.4,32.0,41,30.14,10.0,SE,8.1,-,N/A,,Scattered Clouds,130,2013-03-09 15:55:00
10:15 AM,57.2,32.0,38,30.13,10.0,ESE,8.1,-,N/A,,Mostly Cloudy,120,2013-03-09 16:15:00
10:35 AM,57.2,32.0,38,30.12,10.0,ESE,8.1,-,N/A,,Mostly Cloudy,120,2013-03-09 16:35:00
10:55 AM,57.2,32.0,38,30.12,10.0,SE,8.1,-,N/A,,Scattered Clouds,130,2013-03-09 16:55:00
11:15 AM,59.0,30.2,34,30.11,10.0,SSE,11.5,-,N/A,,Scattered Clouds,150,2013-03-09 17:15:00
11:35 AM,62.6,32.0,32,30.10,10.0,SSE,13.8,17.3,N/A,,Scattered Clouds,150,2013-03-09 17:35:00
11:55 AM,64.4,32.0,30,30.09,10.0,SSE,13.8,19.6,N/A,,Clear,150,2013-03-09 17:55:00
12:15 PM,66.2,32.0,28,30.09,10.0,SE,15.0,18.4,N/A,,Clear,140,2013-03-09 18:15:00
12:35 PM,66.2,32.0,28,30.07,10.0,SSE,12.7,16.1,N/A,,Clear,160,2013-03-09 18:35:00
12:55 PM,68.0,33.8,28,30.06,10.0,SSE,10.4,-,N/A,,Clear,160,2013-03-09 18:55:00
1:15 PM,68.0,33.8,28,30.05,10.0,South,12.7,20.7,N/A,,Clear,170,2013-03-09 19:15:00
1:35 PM,68.0,33.8,28,30.03,10.0,South,15.0,18.4,N/A,,Clear,170,2013-03-09 19:35:00
1:55 PM,69.8,33.8,27,30.02,10.0,South,13.8,19.6,N/A,,Clear,180,2013-03-09 19:55:00
2:15 PM,69.8,33.8,27,30.01,10.0,SSE,11.5,19.6,N/A,,Clear,160,2013-03-09 20:15:00
2:35 PM,69.8,33.8,27,30.00,10.0,SSE,13.8,18.4,N/A,,Clear,160,2013-03-09 20:35:00
2:55 PM,71.6,33.8,25,29.99,10.0,SSE,16.1,-,N/A,,Clear,160,2013-03-09 20:55:00
3:15 PM,69.8,33.8,27,29.98,10.0,South,13.8,23.0,N/A,,Clear,180,2013-03-09 21:15:00
3:35 PM,71.6,33.8,25,29.98,10.0,South,13.8,19.6,N/A,,Clear,170,2013-03-09 21:35:00
3:55 PM,71.6,33.8,25,29.98,10.0,SSE,16.1,21.9,N/A,,Scattered Clouds,160,2013-03-09 21:55:00
4:15 PM,68.0,33.8,28,29.97,10.0,SSE,13.8,23.0,N/A,,Scattered Clouds,160,2013-03-09 22:15:00
4:35 PM,68.0,33.8,28,29.97,10.0,SSE,13.8,-,N/A,,Mostly Cloudy,150,2013-03-09 22:35:00
4:55 PM,68.0,33.8,28,29.96,10.0,SSE,13.8,18.4,N/A,,Overcast,150,2013-03-09 22:55:00
5:15 PM,66.2,33.8,30,29.97,10.0,SSE,12.7,-,N/A,,Mostly Cloudy,150,2013-03-09 23:15:00
5:35 PM,66.2,33.8,30,29.97,10.0,SSE,10.4,-,N/A,,Overcast,150,2013-03-09 23:35:00
5:55 PM,62.6,33.8,34,29.97,10.0,SE,8.1,-,N/A,,Scattered Clouds,140,2013-03-09 23:55:00
6:15 PM,60.8,33.8,36,29.97,10.0,SE,8.1,-,N/A,,Clear,140,2013-03-10 00:15:00
6:35 PM,59.0,33.8,39,29.97,10.0,SE,8.1,-,N/A,,Clear,140,2013-03-10 00:35:00
6:55 PM,59.0,33.8,39,29.97,10.0,SE,8.1,-,N/A,,Clear,130,2013-03-10 00:55:00
7:15 PM,59.0,35.6,42,29.97,10.0,ESE,8.1,-,N/A,,Clear,120,2013-03-10 01:15:00
7:35 PM,60.8,35.6,39,29.96,10.0,SE,9.2,-,N/A,,Clear,130,2013-03-10 01:35:00
7:55 PM,60.8,33.8,36,29.95,10.0,SE,9.2,-,N/A,,Clear,130,2013-03-10 01:55:00
8:15 PM,60.8,33.8,36,29.95,10.0,SE,8.1,-,N/A,,Clear,140,2013-03-10 02:15:00
8:35 PM,59.0,33.8,39,29.95,10.0,SE,8.1,-,N/A,,Clear,140,2013-03-10 02:35:00
8:55 PM,60.8,33.8,36,29.95,10.0,SE,9.2,-,N/A,,Clear,140,2013-03-10 02:55:00
9:15 PM,59.0,33.8,39,29.95,10.0,SE,8.1,-,N/A,,Clear,140,2013-03-10 03:15:00
9:35 PM,57.2,33.8,41,29.95,10.0,SE,8.1,-,N/A,,Clear,140,2013-03-10 03:35:00
9:55 PM,57.2,33.8,41,29.94,10.0,SE,5.8,-,N/A,,Clear,140,2013-03-10 03:55:00
10:15 PM,57.2,33.8,41,29.95,10.0,SE,6.9,-,N/A,,Clear,140,2013-03-10 04:15:00
10:35 PM,57.2,35.6,44,29.94,10.0,SE,5.8,-,N/A,,Clear,140,2013-03-10 04:35:00
10:55 PM,57.2,35.6,44,29.94,10.0,SE,6.9,-,N/A,,Clear,140,2013-03-10 04:55:00
11:15 PM,57.2,35.6,44,29.93,10.0,SE,9.2,-,N/A,,Clear,140,2013-03-10 05:15:00
11:35 PM,59.0,35.6,42,29.93,10.0,SE,10.4,-,N/A,,Scattered Clouds,140,2013-03-10 05:35:00
11:55 PM,59.0,35.6,42,29.92,10.0,SE,11.5,-,N/A,,Scattered Clouds,140,2013-03-10 05:55:00